EW9106 Weather Reports


time (UTC)temp
C
wind
direction
speed
KPH
gust
KPH
rain 1hr
cm
rain 24hr
cm
rain mn
cm
humidity
%
barometer
mb
20260903043556 27 223 0.0 0.0 0.00 0.00 0.00 82 1011.9
20260903042055 27 223 0.0 0.0 0.00 0.00 0.00 81 1011.9
20260903041556 27 223 0.0 0.0 0.00 0.00 0.00 81 1011.8
20260903041055 27 223 0.0 0.0 0.00 0.00 0.00 81 1011.8
20260903040556 27 221 0.0 0.0 0.00 0.00 0.00 81 1011.7
20260903040056 27 222 0.0 0.0 0.00 0.00 0.00 81 1011.5
20260903035555 27 219 0.0 0.0 0.00 0.00 0.00 81 1011.6
20260903035056 27 209 0.0 0.0 0.00 0.00 0.00 80 1011.5
20260903034556 27 225 0.0 0.0 0.00 0.00 0.00 80 1011.4
20260903034056 27 225 0.0 0.0 0.00 0.00 0.00 80 1011.4
20260903033555 27 207 0.0 0.0 0.00 0.00 0.00 80 1011.3
20260903032555 27 233 0.0 0.0 0.00 0.00 0.00 80 1011.3
20260903032055 27 233 0.0 0.0 0.00 0.00 0.00 79 1011.3
20260903031556 27 240 0.0 0.0 0.00 0.00 0.00 80 1011.3
20260903031057 27 253 0.0 0.0 0.00 0.00 0.00 79 1011.4
20260903030555 28 253 0.0 0.0 0.00 0.00 0.00 79 1011.5
20260903030055 28 200 0.0 0.0 0.00 0.00 0.00 79 1011.6
20260903025555 28 196 0.0 0.0 0.00 0.00 0.00 78 1011.7
20260903024555 28 192 0.0 0.0 0.00 0.00 0.00 78 1011.9
20260903024057 28 190 0.0 0.0 0.00 0.00 0.00 77 1011.9
20260903023556 28 173 0.0 0.0 0.00 0.00 0.00 77 1012.0
20260903022555 28 173 0.0 0.0 0.00 0.00 0.00 77 1012.1
20260903022056 28 173 0.0 0.0 0.00 0.00 0.00 77 1012.2
20260903021055 28 173 0.0 0.0 0.00 0.00 0.00 76 1012.1
20260903020555 28 173 0.0 0.0 0.00 0.00 0.00 76 1012.1
20260903020055 28 173 0.0 0.0 0.00 0.00 0.00 76 1012.1
20260903015556 28 173 0.0 0.0 0.00 0.00 0.00 76 1012.0
20260903015055 28 182 0.0 0.0 0.00 0.00 0.00 75 1012.0
20260903014556 29 182 0.0 0.0 0.00 0.00 0.00 75 1012.0
20260903014055 29 182 0.0 0.0 0.00 0.00 0.00 74 1012.0
20260903013555 29 173 0.0 0.0 0.00 0.00 0.00 74 1012.0
20260903013056 29 163 0.0 0.0 0.00 0.00 0.00 74 1012.0
20260903012055 29 168 0.0 0.0 0.00 0.00 0.00 73 1011.9
20260903011555 29 168 0.0 0.0 0.00 0.00 0.00 73 1011.9
20260903011057 30 168 0.0 0.0 0.00 0.00 0.00 72 1011.9
20260903010055 30 210 0.0 0.0 0.00 0.00 0.00 72 1011.9
20260903005555 30 210 0.0 0.0 0.00 0.00 0.00 72 1011.9
20260903005056 30 210 0.0 0.0 0.00 0.00 0.00 71 1011.8
20260903004555 30 234 0.0 0.0 0.00 0.00 0.00 71 1011.7
20260903004056 30 234 0.0 0.0 0.00 0.00 0.00 71 1011.7
20260903003556 30 234 0.0 0.0 0.00 0.00 0.00 71 1011.7
20260903003055 30 234 0.0 0.0 0.00 0.00 0.00 71 1011.6
20260903002555 30 234 0.0 0.0 0.00 0.00 0.00 70 1011.6
20260903002056 30 234 0.0 0.0 0.00 0.00 0.00 70 1011.6
20260903001556 30 234 0.0 0.0 0.00 0.00 0.00 70 1011.5
20260903000556 31 234 0.0 0.0 0.00 0.00 0.00 69 1011.5
20260903000056 31 235 0.0 0.0 0.00 0.00 0.00 68 1011.5
20260902235556 31 235 0.0 0.0 0.00 0.00 0.00 68 1011.5
20260902235055 31 235 0.0 0.0 0.00 0.00 0.00 68 1011.6
20260902234555 31 235 0.0 0.0 0.00 0.00 0.00 67 1011.4
20260902234056 31 235 0.0 0.0 0.00 0.00 0.00 66 1011.5
20260902233555 31 234 0.0 0.0 0.00 0.00 0.00 65 1011.4
20260902233056 31 233 0.0 0.0 0.00 0.00 0.00 65 1011.4
20260902232556 31 233 0.0 0.0 0.00 0.00 0.00 65 1011.5
20260902232056 31 234 0.0 0.0 0.00 0.00 0.00 64 1011.4
20260902231055 32 232 0.0 0.0 0.00 0.00 0.00 64 1011.5
20260902230555 32 232 0.0 0.0 0.00 0.00 0.00 64 1011.6
20260902230055 32 236 0.0 0.0 0.00 0.00 0.00 64 1011.5
20260902225556 32 237 0.0 0.0 0.00 0.00 0.00 64 1011.4
20260902225056 32 235 0.0 0.0 0.00 0.00 0.00 64 1011.5
20260902224556 32 205 0.0 0.0 0.00 0.00 0.00 63 1011.5
20260902223556 32 240 0.0 0.0 0.00 0.00 0.00 62 1011.5
20260902223055 32 223 0.0 0.0 0.00 0.00 0.00 62 1011.5
20260902222056 32 241 0.0 0.0 0.00 0.00 0.00 61 1011.6
20260902221556 32 229 0.0 0.0 0.00 0.00 0.00 61 1011.5
20260902221055 32 243 0.0 0.0 0.00 0.00 0.00 59 1011.6
20260902220557 32 259 0.0 0.0 0.00 0.00 0.00 59 1011.7
20260902220056 32 217 0.0 0.0 0.00 0.00 0.00 58 1011.6
20260902215557 32 231 0.0 1.6 0.00 0.00 0.00 58 1011.6
20260902214057 33 243 0.0 0.0 0.00 0.00 0.00 59 1011.8
20260902213557 33 200 0.0 0.0 0.00 0.00 0.00 59 1011.8
20260902212555 33 232 0.0 0.0 0.00 0.00 0.00 60 1011.8
20260902212056 33 234 0.0 0.0 0.00 0.00 0.00 60 1011.8
20260902211556 33 252 0.0 0.0 0.00 0.00 0.00 60 1011.9
20260902211056 33 213 0.0 1.6 0.00 0.00 0.00 59 1011.8
20260902210555 33 214 0.0 1.6 0.00 0.00 0.00 58 1011.9
20260902210056 33 243 0.0 0.0 0.00 0.00 0.00 58 1011.9
20260902205556 33 258 0.0 1.6 0.00 0.00 0.00 56 1011.9
20260902205056 33 212 0.0 0.0 0.00 0.00 0.00 56 1012.0
20260902204556 33 233 0.0 1.6 0.00 0.00 0.00 56 1012.0
20260902204056 33 233 0.0 1.6 0.00 0.00 0.00 56 1012.0
20260902203557 33 233 0.0 1.6 0.00 0.00 0.00 57 1012.2
20260902203056 33 246 0.0 0.0 0.00 0.00 0.00 58 1012.4
20260902202556 33 237 0.0 0.0 0.00 0.00 0.00 59 1012.4
20260902202056 33 199 0.0 0.0 0.00 0.00 0.00 60 1012.3
20260902201555 33 240 0.0 0.0 0.00 0.00 0.00 60 1012.2
20260902201056 33 205 0.0 0.0 0.00 0.00 0.00 61 1012.4
20260902200557 33 235 0.0 1.6 0.00 0.00 0.00 60 1012.5
20260902200056 33 228 0.0 0.0 0.00 0.00 0.00 59 1012.5
20260902195556 33 205 0.0 0.0 0.00 0.00 0.00 60 1012.5
20260902195056 33 225 0.0 0.0 0.00 0.00 0.00 59 1012.5
20260902194556 33 254 0.0 0.0 0.00 0.00 0.00 59 1012.5
20260902194055 33 244 0.0 1.6 0.00 0.00 0.00 59 1012.7
20260902193556 33 215 0.0 0.0 0.00 0.00 0.00 59 1012.7
20260902193056 33 186 0.0 0.0 0.00 0.00 0.00 59 1012.7
20260902192556 33 223 0.0 0.0 0.00 0.00 0.00 59 1012.9
20260902192056 33 226 0.0 0.0 0.00 0.00 0.00 59 1013.0
20260902191057 33 225 0.0 0.0 0.00 0.00 0.00 58 1012.9
20260902185556 33 234 0.0 0.0 0.00 0.00 0.00 60 1013.2
20260902184057 33 250 0.0 0.0 0.00 0.00 0.00 62 1013.4
20260902183557 33 250 0.0 0.0 0.00 0.00 0.00 62 1013.4
20260902183056 33 243 0.0 0.0 0.00 0.00 0.00 61 1013.4
20260902182556 32 236 0.0 0.0 0.00 0.00 0.00 63 1013.5
20260902182056 32 260 0.0 0.0 0.00 0.00 0.00 63 1013.5
20260902181556 32 261 0.0 0.0 0.00 0.00 0.00 63 1013.5
20260902181056 32 249 0.0 0.0 0.00 0.00 0.00 63 1013.6
20260902180556 32 248 0.0 0.0 0.00 0.00 0.00 63 1013.7
20260902180056 32 241 0.0 0.0 0.00 0.00 0.00 64 1013.7
20260902175557 32 248 0.0 0.0 0.00 0.00 0.00 63 1013.8
20260902175056 32 209 0.0 0.0 0.00 0.00 0.00 64 1013.8
20260902174556 32 258 0.0 0.0 0.00 0.00 0.00 64 1013.8
20260902174056 32 226 0.0 0.0 0.00 0.00 0.00 64 1013.8
20260902173557 32 229 0.0 0.0 0.00 0.00 0.00 64 1013.9
20260902173056 32 228 0.0 0.0 0.00 0.00 0.00 64 1014.0
20260902172556 32 238 0.0 1.6 0.00 0.00 0.00 64 1013.9
20260902172057 32 229 0.0 0.0 0.00 0.00 0.00 66 1014.0
20260902171556 32 185 0.0 1.6 0.00 0.00 0.00 66 1014.1
20260902171057 32 192 0.0 0.0 0.00 0.00 0.00 68 1014.1
20260902170556 32 198 0.0 0.0 0.00 0.00 0.00 67 1014.1
20260902170058 32 186 0.0 1.6 0.00 0.00 0.00 68 1014.2
20260902165556 31 256 0.0 0.0 0.00 0.00 0.00 67 1014.3
20260902165056 31 256 0.0 0.0 0.00 0.00 0.00 67 1014.5
20260902164557 31 256 0.0 0.0 0.00 0.00 0.00 66 1014.5
20260902164056 31 240 0.0 0.0 0.00 0.00 0.00 67 1014.5
20260902163556 31 238 0.0 0.0 0.00 0.00 0.00 68 1014.6
20260902163056 31 238 0.0 0.0 0.00 0.00 0.00 67 1014.6
20260902162556 31 223 0.0 0.0 0.00 0.00 0.00 67 1014.5
20260902162057 31 210 0.0 0.0 0.00 0.00 0.00 68 1014.6
20260902161556 31 246 0.0 0.0 0.00 0.00 0.00 70 1014.5
20260902161057 31 245 0.0 0.0 0.00 0.00 0.00 70 1014.5
20260902160556 30 209 0.0 0.0 0.00 0.00 0.00 71 1014.5
20260902160057 30 235 0.0 0.0 0.00 0.00 0.00 71 1014.5
20260902155557 30 249 0.0 0.0 0.00 0.00 0.00 71 1014.4
20260902154557 30 240 0.0 0.0 0.00 0.00 0.00 72 1014.4
20260902154056 30 223 0.0 0.0 0.00 0.00 0.00 73 1014.3
20260902153057 29 255 0.0 0.0 0.00 0.00 0.00 76 1014.4
20260902152557 28 261 0.0 0.0 0.00 0.00 0.00 77 1014.4
20260902151556 28 199 0.0 0.0 0.00 0.00 0.00 80 1014.3
20260902151056 28 197 0.0 0.0 0.00 0.00 0.00 80 1014.3
20260902150056 28 225 0.0 0.0 0.00 0.00 0.00 81 1014.3
20260902145556 27 223 0.0 0.0 0.00 0.00 0.00 81 1014.4
20260902145056 27 220 0.0 0.0 0.00 0.00 0.00 82 1014.4
20260902144557 27 217 0.0 0.0 0.00 0.00 0.00 82 1014.4
20260902144056 27 181 0.0 0.0 0.00 0.00 0.00 83 1014.4
20260902143557 27 199 0.0 0.0 0.00 0.00 0.00 83 1014.4
20260902143057 27 199 0.0 0.0 0.00 0.00 0.00 83 1014.4
20260902142557 26 198 0.0 0.0 0.00 0.00 0.00 83 1014.3
20260902142057 26 197 0.0 0.0 0.00 0.00 0.00 84 1014.2
20260902141556 26 192 0.0 0.0 0.00 0.00 0.00 84 1014.2
20260902140558 26 192 0.0 0.0 0.00 0.00 0.00 85 1014.2
20260902140056 26 192 0.0 0.0 0.00 0.00 0.00 86 1014.2
20260902135557 26 187 0.0 0.0 0.00 0.00 0.00 86 1014.1
20260902134557 25 179 0.0 0.0 0.00 0.00 0.00 86 1014.1
20260902134057 25 173 0.0 0.0 0.00 0.00 0.00 88 1014.1
20260902133556 25 162 0.0 0.0 0.00 0.00 0.00 88 1014.1
20260902133057 25 174 0.0 0.0 0.00 0.00 0.00 89 1014.3
20260902132557 25 174 0.0 0.0 0.00 0.00 0.00 90 1014.3
20260902132057 25 174 0.0 0.0 0.00 0.00 0.00 91 1014.3
20260902131557 24 166 0.0 0.0 0.00 0.00 0.00 91 1014.3
20260902130557 24 166 0.0 0.0 0.00 0.00 0.00 92 1014.4
20260902130057 24 165 0.0 0.0 0.00 0.00 0.00 92 1014.3
20260902125057 23 170 0.0 0.0 0.00 0.00 0.00 92 1014.5
20260902124556 24 0 0.0 0.0 0.00 0.00 0.00 91 1014.3
20260902124057 24 0 0.0 0.0 0.00 0.00 0.00 91 1014.3
20260902123556 24 0 0.0 0.0 0.00 0.00 0.00 91 1014.4
20260902122557 24 0 0.0 0.0 0.00 0.00 0.00 91 1014.4
20260902122056 24 0 0.0 0.0 0.00 0.00 0.00 91 1014.4
20260902121557 24 0 0.0 0.0 0.00 0.00 0.00 91 1014.3
20260902121057 24 0 0.0 0.0 0.00 0.00 0.00 91 1014.2
20260902120557 24 0 0.0 0.0 0.00 0.00 0.00 91 1014.2
20260902120057 24 0 0.0 0.0 0.00 0.00 0.00 91 1014.2
20260902115557 24 0 0.0 0.0 0.00 0.00 0.00 91 1014.1
20260902115057 24 0 0.0 0.0 0.00 0.00 0.00 91 1014.2
20260902114557 24 0 0.0 0.0 0.00 0.00 0.00 91 1014.1
20260902114057 24 0 0.0 0.0 0.00 0.00 0.00 91 1014.0
20260902112558 24 0 0.0 0.0 0.00 0.00 0.00 91 1013.9
20260902112057 24 0 0.0 0.0 0.00 0.00 0.00 91 1013.8
20260902111557 24 0 0.0 0.0 0.00 0.00 0.00 91 1013.8
20260902110557 24 0 0.0 0.0 0.00 0.00 0.00 91 1013.6
20260902110057 24 0 0.0 0.0 0.00 0.00 0.00 91 1013.6
20260902105556 24 0 0.0 0.0 0.00 0.00 0.00 91 1013.6
20260902105057 24 0 0.0 0.0 0.00 0.00 0.00 91 1013.7
20260902104557 24 0 0.0 0.0 0.00 0.00 0.00 91 1013.6
20260902104057 24 0 0.0 0.0 0.00 0.00 0.00 91 1013.5
20260902103556 24 0 0.0 0.0 0.00 0.00 0.00 91 1013.4
20260902103057 24 0 0.0 0.0 0.00 0.00 0.00 91 1013.3
20260902102556 24 0 0.0 0.0 0.00 0.00 0.00 91 1013.3
20260902102057 24 0 0.0 0.0 0.00 0.00 0.00 91 1013.3
20260902101556 24 172 0.0 0.0 0.00 0.00 0.00 91 1013.5
20260902101057 24 172 0.0 0.0 0.00 0.00 0.00 91 1013.5
20260902100558 24 172 0.0 0.0 0.00 0.00 0.00 91 1013.5
20260902100057 24 172 0.0 0.0 0.00 0.00 0.00 91 1013.5
20260902095557 24 172 0.0 0.0 0.00 0.00 0.00 91 1013.5
20260902095057 24 172 0.0 0.0 0.00 0.00 0.00 91 1013.4
20260902094557 24 172 0.0 0.0 0.00 0.00 0.00 91 1013.4
20260902094057 24 172 0.0 0.0 0.00 0.00 0.00 91 1013.4
20260902093556 24 171 0.0 0.0 0.00 0.00 0.00 91 1013.4
20260902093057 24 171 0.0 0.0 0.00 0.00 0.00 92 1013.6
20260902092557 24 171 0.0 0.0 0.00 0.00 0.00 92 1013.6
20260902092057 24 171 0.0 0.0 0.00 0.00 0.00 92 1013.6
20260902091556 24 171 0.0 0.0 0.00 0.00 0.00 92 1013.5
20260902091057 24 171 0.0 0.0 0.00 0.00 0.00 92 1013.4
20260902090558 24 173 0.0 0.0 0.00 0.00 0.00 92 1013.5
20260902090057 24 172 0.0 0.0 0.00 0.00 0.00 91 1013.4
20260902085057 24 167 0.0 0.0 0.00 0.00 0.00 91 1013.6
20260902084558 24 167 0.0 0.0 0.00 0.00 0.00 91 1013.6
20260902084058 24 167 0.0 0.0 0.00 0.00 0.00 91 1013.6
20260902083557 24 171 0.0 0.0 0.00 0.00 0.00 91 1013.6
20260902082058 24 171 0.0 0.0 0.00 0.00 0.00 91 1013.4
20260902081557 24 171 0.0 0.0 0.00 0.00 0.00 91 1013.3
20260902081057 24 171 0.0 0.0 0.00 0.00 0.00 91 1013.2
20260902080557 24 171 0.0 0.0 0.00 0.00 0.00 91 1013.2
20260902080058 24 172 0.0 0.0 0.00 0.00 0.00 91 1013.2
20260902075557 24 181 0.0 0.0 0.00 0.00 0.00 91 1013.2
20260902075057 24 180 0.0 0.0 0.00 0.00 0.00 91 1013.2
20260902074558 24 182 0.0 0.0 0.00 0.00 0.00 91 1013.3
20260902074058 24 182 0.0 0.0 0.00 0.00 0.00 91 1013.2
20260902073557 24 182 0.0 0.0 0.00 0.00 0.00 91 1013.1
20260902073057 24 182 0.0 0.0 0.00 0.00 0.00 91 1013.1
20260902072057 24 182 0.0 0.0 0.00 0.00 0.00 91 1013.1
20260902071557 24 182 0.0 0.0 0.00 0.00 0.00 91 1013.2
20260902071057 24 182 0.0 0.0 0.00 0.00 0.00 91 1013.2
20260902070557 25 182 0.0 0.0 0.00 0.00 0.00 91 1013.2
20260902070057 25 182 0.0 0.0 0.00 0.00 0.00 91 1013.2
20260902065557 25 182 0.0 0.0 0.00 0.00 0.00 90 1013.2
20260902065058 25 182 0.0 0.0 0.00 0.00 0.00 90 1013.1
20260902064557 25 182 0.0 0.0 0.00 0.00 0.00 90 1013.2
20260902064058 25 182 0.0 0.0 0.00 0.00 0.00 90 1013.1
20260902063057 25 182 0.0 0.0 0.00 0.00 0.00 90 1013.1
20260902062557 25 182 0.0 0.0 0.00 0.00 0.00 90 1013.3
20260902062057 25 182 0.0 0.0 0.00 0.00 0.00 90 1013.3
20260902061558 25 182 0.0 0.0 0.00 0.00 0.00 90 1013.4
20260902061057 25 182 0.0 0.0 0.00 0.00 0.00 90 1013.3
20260902060557 25 182 0.0 0.0 0.00 0.00 0.00 90 1013.4
20260902060057 25 182 0.0 0.0 0.00 0.00 0.00 90 1013.4
20260902055058 25 182 0.0 0.0 0.00 0.00 0.00 90 1013.5
20260902054558 25 182 0.0 0.0 0.00 0.00 0.00 90 1013.5
20260902053557 25 182 0.0 0.0 0.00 0.00 0.00 90 1013.5
20260902052057 25 182 0.0 0.0 0.00 0.00 0.00 90 1013.3
20260902051557 25 182 0.0 0.0 0.00 0.00 0.00 90 1013.3
20260902051057 25 182 0.0 0.0 0.00 0.00 0.00 90 1013.4
20260902050557 25 182 0.0 0.0 0.00 0.00 0.00 90 1013.5
20260902050057 25 182 0.0 0.0 0.00 0.00 0.00 90 1013.4
20260902045057 25 182 0.0 0.0 0.00 0.00 0.00 91 1013.2
20260902044557 25 182 0.0 0.0 0.00 0.00 0.00 91 1013.1
20260902044058 25 182 0.0 0.0 0.00 0.00 0.00 91 1013.1